Temp
24 26 28 30 32 34 36 34 35 35 35 35 34 34 34 34 33 30 31 30 29 29 26 24 25 25 25 26 26 25 25 25 24 24 23 23 23 23 23 22 22 21 21 21 21 21 22 21 21
25 28 29 33 32 35 35 34 33 34 34 34 33 34 34 31 34 33 31 29 29 29 27 24 24 24 24 25 25 25 25 24 24 24 23 23 23 23 22 22 22 21 21 21 21 21 21 21 21
24 28 31 33 34 35 34 33 33 33 34 34 34 35 34 31 32 31 29 29 29 29 27 25 24 24 24 24 24 24 24 24 24 24 23 23 23 23 22 22 22 21 21 20 21 20 21 21 21
29 31 33 32 34 33 34 33 33 34 34 34 34 33 32 31 31 30 29 29 29 28 27 24 24 24 24 24 24 24 24 24 24 24 23 23 23 23 22 22 21 21 21 20 20 20 20 20 21
29 32 32 33 33 33 33 33 33 32 32 33 34 32 31 31 31 30 30 29 28 28 26 22 24 23 23 23 24 24 24 23 23 23 23 23 23 23 22 22 21 21 21 20 20 20 20 20 20
31 33 32 34 34 33 32 32 32 32 33 32 32 32 31 31 30 29 29 28 28 28 26 24 23 23 23 23 23 23 23 23 23 23 22 22 22 22 22 22 21 21 21 20 20 20 20 20 20
30 32 32 33 33 32 32 31 31 31 32 31 32 32 32 31 29 29 29 28 27 27 26 26 24 23 23 23 23 23 23 23 23 23 22 22 22 22 22 22 21 21 21 21 20 20 20 20 20
30 31 31 33 33 32 30 30 30 31 30 31 32 31 31 30 29 29 30 29 28 27 26 25 25 24 22 21 23 22 22 22 22 22 22 22 22 21 21 21 21 21 21 21 21 20 20 20 20
31 30 32 33 31 31 30 30 31 30 31 30 31 30 29 29 29 29 29 30 29 28 27 26 25 25 24 23 23 22 22 22 22 21 21 21 20 21 20 20 20 21 21 21 20 20 21 20 20
30 31 32 31 30 30 29 30 30 30 31 30 30 30 29 28 28 28 28 29 28 28 27 26 25 25 24 25 24 23 23 22 21 21 21 20 21 22 23 22 21 20 20 20 20 20 20 20 20
30 30 29 29 28 29 29 30 30 29 29 30 27 28 28 27 26 26 26 25 25 25 22 21 20 22 24 25 26 25 25 25 23 21 21 22 21 22 23 23 21 20 20 20 20 19 19 19 20
27 29 28 29 27 27 28 29 28 29 28 28 28 27 26 26 26 25 24 23 21 20 18 17 17 18 18 21 22 23 22 20 20 20 19 20 20 20 21 21 21 20 20 20 21 21 20 20 21
27 29 28 28 27 27 28 27 28 28 28 28 28 25 24 25 25 23 22 21 20 18 16 15 15 15 17 17 18 18 19 19 18 18 18 18 19 19 19 19 20 20 20 20 20 20 20 21 21
27 27 27 28 27 28 27 27 28 28 28 27 27 25 23 22 22 22 20 19 19 17 16 14 15 14 15 15 15 16 17 17 17 17 17 17 17 18 18 18 18 19 19 19 20 20 20 20 20
25 25 28 28 28 28 26 26 27 29 27 27 27 25 22 21 20 19 18 18 17 16 15 13 14 13 14 15 15 15 14 14 14 14 14 15 15 16 16 17 17 17 18 18 19 19 19 19 19
25 26 27 30 27 26 26 28 28 28 27 27 27 25 22 20 19 17 16 16 16 15 14 13 13 13 13 14 15 15 15 14 14 13 13 13 13 13 14 14 15 15 16 17 18 18 15 17 18
26 27 28 27 27 27 26 27 29 28 27 26 27 26 22 20 18 17 16 16 15 14 14 13 12 12 13 14 15 15 15 15 15 14 13 12 13 12 13 15 16 15 16 16 17 17 17 17 18
27 27 28 26 28 25 26 26 27 28 27 26 26 25 21 19 18 16 16 15 15 14 13 13 12 11 13 13 14 15 15 15 15 14 12 11 11 11 12 14 14 14 16 17 15 15 15 17 18
25 25 26 27 28 26 25 25 27 27 27 26 26 24 21 18 17 15 15 14 14 13 12 11 11 10 11 13 13 14 14 14 14 13 12 11 10 10 11 12 12 13 14 14 15 16 14 14 16
24 24 25 26 27 24 24 25 26 27 26 25 24 23 20 18 17 16 15 14 12 11 11 11 10 10 9 10 11 12 13 13 13 12 12 11 10 9 10 10 11 11 12 13 14 14 15 15 15
23 23 24 24 25 25 24 24 25 26 23 21 21 22 21 20 18 17 15 13 12 11 11 11 10 10 9 9 10 10 12 12 12 11 11 9 9 9 8 8 9 8 9 11 11 12 13 14 15
23 24 23 22 22 22 24 23 25 25 22 21 21 20 20 19 18 17 15 14 13 11 10 10 9 9 8 8 9 9 10 10 10 10 10 8 9 8 8 8 7 7 7 8 9 10 10 11 13
22 22 21 22 21 22 23 23 25 26 23 22 21 20 19 18 18 17 15 14 12 11 10 9 10 9 8 7 7 7 7 8 8 8 7 8 7 7 7 7 5 5 5 5 5 6 7 8 9
22 21 21 21 21 20 23 23 24 26 24 24 22 20 19 18 18 16 14 13 12 11 10 9 9 8 7 6 6 6 5 5 6 6 6 6 6 6 5 4 3 3 3 3 3 4 4 5 6
21 20 20 21 22 21 24 22 24 25 24 23 23 21 20 18 17 16 15 14 12 10 9 9 8 7 6 5 5 4 4 4 4 4 3 3 3 3 2 2 1 2 2 2 2 2 3 3 4
22 21 20 18 20 22 23 21 24 24 24 23 22 21 20 18 16 15 14 13 11 10 8 8 7 6 5 4 4 4 3 3 3 2 1 2 1 1 1 0 0 1 1 1 1 1 1 2 3
21 20 22 19 20 19 21 23 25 23 22 21 20 20 19 18 14 14 13 12 11 9 7 6 6 5 4 4 4 3 2 2 1 1 0 0 -0 -0 -0 -0 -0 -0 0 1 1 1 1 1 1
21 22 19 18 15 17 20 22 23 20 20 20 19 19 19 18 13 14 12 11 10 9 7 5 5 4 4 4 3 3 2 1 0 0 -1 -1 -1 -1 -1 -1 -1 -0 -0 -0 -0 -0 0 1 1
21 20 20 20 19 18 18 20 23 20 21 20 20 19 19 17 13 13 12 10 9 8 7 6 4 4 3 3 3 2 1 0 -0 -1 -1 -2 -1 -1 -1 -1 -1 -1 -1 -1 -1 -1 -0 -1 -0
20 19 20 17 16 18 15 16 22 19 21 21 21 21 20 18 15 13 11 10 9 8 7 6 5 3 2 2 2 1 0 -0 -1 -1 -2 -2 -2 -2 -2 -2 -2 -2 -2 -2 -2 -2 -2 -1 -2
Height
774 773 770 764 769 745 739 745 739 741 741 736 737 741 740 739 746 768 750 754 756 759 762 764 766 768 769 769 771 774 776 778 780 782 783 785 786 788 790 792 794 795 797 798 800 800 800 801 802
775 773 768 754 765 747 739 741 749 745 740 740 741 739 738 755 739 746 751 757 758 759 763 765 767 769 772 773 774 775 777 779 782 783 785 787 788 790 791 792 794 796 797 799 800 801 802 802 803
775 771 763 750 748 749 747 745 747 745 739 740 741 735 741 756 752 753 759 759 759 761 764 765 768 771 774 776 777 778 779 781 782 784 786 787 789 790 792 793 795 796 798 800 801 802 803 804 803
772 763 755 764 748 748 747 749 746 743 741 739 739 750 751 756 756 759 760 760 762 764 766 766 768 771 774 776 778 780 781 782 783 784 786 788 789 791 792 793 795 796 798 800 801 802 803 804 804
769 757 761 753 748 749 749 750 747 751 751 747 741 754 756 757 759 761 762 763 764 766 768 768 769 772 774 776 778 780 781 783 784 785 786 787 789 790 791 793 795 796 797 798 800 801 802 802 803
765 752 763 751 743 750 750 751 752 752 749 752 752 755 759 761 763 765 764 766 767 767 769 770 770 771 773 775 777 779 780 782 783 784 785 786 788 789 790 792 792 794 795 797 798 798 799 800 802
767 757 758 747 749 756 753 754 759 757 754 761 754 759 757 761 767 766 767 768 768 770 771 772 772 770 772 773 775 777 779 780 781 782 784 784 786 787 789 790 792 792 794 794 795 797 797 799 799
765 758 760 748 751 756 757 760 760 758 761 760 755 760 763 765 769 767 767 768 769 770 771 773 774 774 774 773 773 775 777 778 779 780 781 782 783 784 786 788 790 791 793 794 794 795 797 797 798
761 770 758 744 755 756 759 760 754 759 760 761 759 762 766 769 769 768 768 766 767 769 771 772 773 774 775 775 773 773 775 775 776 777 778 780 781 782 783 784 787 787 790 793 792 793 793 795 796
765 760 752 753 755 760 762 761 760 763 758 762 761 764 769 771 771 771 770 769 769 769 771 773 773 773 774 774 774 774 775 775 775 776 777 777 779 780 780 781 782 784 786 789 790 791 791 792 794
756 765 759 759 766 765 762 762 757 765 770 761 772 769 771 774 773 774 774 776 776 776 777 777 776 774 774 772 770 771 772 772 774 775 775 775 777 777 778 777 779 780 781 783 785 786 787 788 788
772 758 764 759 769 771 768 760 766 764 767 768 768 773 775 775 776 777 777 779 782 783 784 783 780 777 773 773 771 770 772 774 775 775 774 773 773 774 775 775 774 776 778 778 779 778 779 781 783
771 760 764 765 769 768 765 767 766 765 765 770 770 778 779 778 778 781 782 783 784 785 785 785 783 780 778 775 772 772 774 774 774 774 773 772 772 772 772 772 773 774 774 772 771 771 771 772 774
766 768 766 763 764 763 766 764 762 759 764 766 767 778 785 785 783 783 785 787 787 787 787 786 785 782 780 779 777 775 774 774 774 773 772 771 770 770 771 771 771 771 770 768 767 767 767 769 772
773 775 761 758 757 760 766 767 764 754 763 766 762 770 786 789 788 788 789 790 790 789 790 788 786 785 782 781 780 779 777 776 774 774 773 771 770 769 769 769 769 768 766 766 766 765 749 755 766
776 766 770 742 760 763 770 760 750 755 761 764 761 768 782 790 792 792 791 791 792 792 791 790 788 786 783 782 781 781 780 779 778 777 775 773 772 770 769 769 767 766 763 763 763 757 732 749 763
764 764 755 757 756 758 768 759 746 748 757 761 760 763 780 789 794 794 794 794 794 793 793 791 791 788 785 783 783 783 782 782 780 779 778 776 774 772 771 770 769 766 763 763 765 762 761 763 763
756 754 753 762 751 763 764 762 752 747 752 759 757 762 779 789 794 796 796 796 795 795 795 794 793 791 788 786 785 784 784 783 782 781 780 778 776 775 773 771 769 767 764 762 763 764 762 761 761
767 765 763 751 746 759 765 762 750 744 746 752 751 763 777 789 795 798 798 798 797 798 797 797 796 794 791 789 788 786 786 784 783 782 782 780 778 776 774 772 770 768 766 763 761 760 761 760 760
773 771 765 754 749 765 765 758 746 740 743 753 755 762 777 787 792 797 798 800 802 802 801 799 798 796 795 793 792 790 787 785 784 784 784 782 780 778 776 775 772 771 768 765 761 760 758 757 757
772 771 766 767 757 754 760 755 741 732 751 764 766 764 773 779 786 793 798 802 803 803 802 801 800 800 799 796 794 792 789 787 786 786 784 783 781 780 778 776 774 772 770 767 765 762 760 756 754
774 760 765 773 771 769 752 763 743 736 755 763 765 770 774 780 784 790 795 799 801 803 804 804 803 802 801 799 797 794 792 791 790 788 786 784 782 781 778 776 775 773 771 768 766 764 762 760 754
771 773 774 771 771 768 760 762 737 725 747 753 761 767 772 779 783 789 795 798 802 803 804 805 804 804 803 801 800 798 797 795 792 789 787 784 782 781 780 777 775 773 771 769 767 765 763 762 759
768 776 770 767 768 773 753 749 737 721 734 738 753 763 769 776 782 789 796 798 801 804 805 805 805 805 805 803 801 800 799 797 794 791 789 787 784 782 781 778 777 773 772 769 766 764 761 760 758
771 775 776 767 761 755 728 747 738 727 730 737 745 759 767 774 780 788 793 797 802 804 805 805 806 806 805 804 803 802 801 799 796 795 793 791 787 784 783 779 778 773 771 769 765 761 759 755 755
759 767 775 781 765 750 736 751 733 725 726 737 745 753 763 771 781 789 793 796 801 805 807 806 808 809 807 806 805 804 802 801 799 798 796 792 790 787 785 782 778 774 771 767 763 759 756 753 751
759 767 756 769 765 765 748 732 718 723 732 737 746 751 760 768 783 787 794 797 801 804 806 808 809 809 808 807 807 806 804 803 801 799 797 795 792 789 786 783 778 773 769 765 761 756 752 749 747
761 753 771 773 790 772 748 735 726 735 739 743 748 751 755 764 784 787 794 798 800 803 806 809 811 811 809 808 808 806 805 803 802 801 799 796 793 790 788 783 778 773 768 764 760 755 751 747 743
756 761 762 761 761 767 762 743 719 735 732 737 740 747 751 760 780 787 791 798 801 803 805 809 811 810 809 808 808 806 806 806 804 803 800 797 795 792 788 783 778 773 768 764 759 755 750 746 740
757 764 757 771 774 762 772 760 725 741 734 729 729 732 742 751 771 783 793 796 799 802 804 808 809 809 808 809 809 808 808 807 805 804 802 800 795 793 789 784 779 774 770 764 759 753 748 743 737
Wind_Speed
10 8 9 9 7 7 4 7 4 3 4 6 4 5 10 17 14 5 15 10 5 6 10 16 17 16 15 14 14 15 16 17 17 18 18 18 19 19 19 19 19 18 16 14 14 13 11 9 8
8 9 10 7 8 10 7 6 4 5 5 1 2 3 2 13 12 13 14 12 7 3 9 12 17 16 15 13 13 14 15 15 16 17 18 18 19 20 19 19 19 18 16 14 15 13 10 9 7
9 8 10 5 9 8 8 8 4 5 3 1 2 3 6 5 12 12 11 11 9 8 7 11 13 15 14 13 11 11 12 14 16 17 18 18 19 20 19 19 19 18 17 15 15 13 11 9 8
8 8 6 9 13 6 8 6 2 5 4 3 4 11 10 9 5 8 9 10 10 7 6 6 12 13 13 13 12 11 11 11 14 17 18 18 19 19 19 19 20 19 18 17 14 12 12 11 10
12 8 11 11 2 3 1 4 4 4 5 3 6 8 11 10 9 9 9 9 8 7 5 3 9 10 10 11 12 12 12 11 11 14 17 18 19 20 20 19 19 19 18 17 16 13 13 13 12
7 5 11 11 8 5 2 2 2 2 3 7 5 10 7 11 11 9 8 9 8 7 4 1 4 8 10 10 11 12 12 12 12 13 15 17 19 20 21 21 20 20 19 17 17 16 15 14 13
12 11 14 11 3 7 6 3 1 3 3 8 5 2 7 13 11 8 5 6 7 7 5 1 3 6 11 11 12 12 12 13 13 15 16 17 18 19 21 21 21 22 21 19 19 18 17 16 15
7 8 17 11 8 3 6 1 2 3 10 5 6 2 5 12 11 8 4 2 3 4 3 3 2 5 7 8 11 12 13 13 14 15 17 18 19 20 21 21 22 21 21 20 20 19 18 17 16
7 10 12 9 4 8 4 6 8 1 6 2 1 6 10 11 9 8 7 4 3 2 2 3 4 4 6 7 8 9 13 14 15 15 16 18 17 18 20 22 21 22 22 22 22 20 19 18 17
9 10 6 11 7 4 2 6 5 6 6 6 2 5 6 9 9 9 10 10 9 8 5 10 6 6 7 8 7 6 8 8 10 12 13 14 16 18 20 22 23 25 24 23 23 21 19 19 15
4 12 8 5 5 5 7 8 3 9 9 4 5 6 7 8 8 10 12 15 15 12 15 14 15 11 8 11 9 10 11 7 8 11 13 14 16 19 19 21 19 21 24 23 23 21 21 20 19
9 6 4 0 3 7 9 9 10 7 7 4 1 6 6 7 8 12 13 13 14 12 13 13 14 12 11 9 10 6 4 6 7 8 9 12 15 16 18 21 21 23 23 25 26 25 24 23 22
12 10 3 7 8 11 9 11 11 9 3 3 1 6 6 7 9 11 12 12 12 13 15 15 14 13 11 10 6 6 4 5 7 8 7 10 12 14 15 19 20 21 23 26 28 29 27 27 26
4 7 10 10 11 11 12 12 6 9 6 4 5 4 6 8 10 10 12 13 13 12 14 15 15 15 12 11 9 6 6 4 2 3 4 6 9 12 16 16 18 22 23 25 27 27 27 25 24
10 12 14 14 12 8 6 14 13 7 7 8 8 11 4 5 8 10 11 11 12 13 14 16 15 15 14 11 10 10 10 10 9 8 8 8 8 8 10 12 13 17 21 24 25 26 31 20 20
10 12 13 9 8 7 7 11 13 10 7 8 9 7 2 5 6 9 10 10 12 13 14 15 16 15 14 12 10 9 10 10 11 12 13 12 13 13 14 12 14 17 14 12 15 19 16 19 17
13 11 14 10 9 4 9 9 4 12 8 11 9 3 4 3 3 7 8 10 11 13 14 16 16 17 15 13 9 9 10 10 10 10 12 15 14 15 14 12 12 15 15 15 10 13 11 13 18
12 9 10 9 6 9 13 16 16 15 11 13 9 2 4 2 4 6 8 9 12 13 14 15 17 19 15 13 10 7 9 8 9 10 13 15 14 15 15 12 13 15 14 14 12 11 11 14 18
11 14 16 15 11 13 16 19 16 12 13 14 11 8 6 6 6 6 7 10 11 14 15 16 17 19 17 16 15 13 12 10 10 11 13 14 16 16 16 14 15 15 15 16 16 14 13 15 14
13 16 17 16 15 9 17 20 18 16 9 8 6 7 9 9 8 7 7 8 9 11 13 15 17 18 19 16 15 14 12 11 9 12 13 14 17 16 15 15 15 16 17 17 16 15 16 15 14
15 16 16 17 16 14 20 23 21 12 4 6 7 4 8 9 9 8 7 5 6 8 11 13 14 15 16 16 14 15 12 12 13 16 15 18 17 16 16 16 16 16 15 15 16 16 17 19 16
16 11 8 12 12 11 1 13 15 11 13 11 11 10 9 8 7 7 6 5 7 8 9 10 12 14 15 16 15 15 14 15 15 16 16 18 16 17 16 17 17 17 17 16 15 15 16 17 21
11 5 10 11 12 15 18 12 13 7 12 15 12 11 10 10 9 7 6 6 8 8 8 9 10 13 14 14 14 14 15 15 15 17 19 17 17 16 17 17 18 19 19 18 18 17 16 16 19
5 9 12 12 12 14 18 18 16 12 12 12 13 11 11 11 8 8 6 5 7 8 9 10 11 13 14 15 15 15 15 15 17 18 18 18 18 18 17 19 20 19 19 19 20 20 19 18 19
9 10 8 10 11 14 8 8 12 2 8 2 9 10 11 11 10 7 5 6 6 8 9 9 11 13 14 14 14 14 14 14 15 17 17 19 19 19 20 22 21 20 20 21 21 21 21 20 21
10 11 10 15 14 14 7 8 7 4 8 9 4 9 12 12 9 7 5 5 6 7 8 9 10 10 12 13 13 14 14 14 14 15 16 16 17 18 20 20 20 20 20 20 20 20 21 20 22
9 9 13 16 17 16 20 27 24 13 10 9 10 11 13 13 10 8 8 7 6 6 8 8 8 9 11 12 12 13 14 14 15 15 15 16 16 18 19 19 19 19 20 20 20 21 21 22 23
14 13 8 7 8 20 17 20 15 10 9 10 11 13 14 13 11 9 8 7 6 6 7 7 6 7 9 10 11 12 14 15 15 15 16 17 18 18 19 19 19 19 20 21 20 20 21 23 23
13 15 15 17 15 16 18 15 7 4 8 13 14 13 13 16 13 10 8 8 6 6 6 5 5 6 8 9 10 12 13 13 14 15 16 17 18 19 20 21 21 22 22 21 20 20 19 20 22
12 17 18 12 13 15 11 14 14 2 10 6 8 14 13 16 14 11 9 9 8 6 5 4 4 6 7 7 8 10 11 12 13 15 16 17 19 20 21 22 23 24 25 24 22 20 20 21 23
Wind_Direction
319 298 281 269 245 227 252 116 324 296 185 54 12 333 2 31 22 46 68 41 69 136 166 179 182 187 186 181 183 188 191 192 192 192 191 189 187 185 183 181 179 180 182 186 177 174 172 171 170
308 296 255 277 257 253 111 90 41 5 11 66 139 235 236 63 48 58 54 35 41 165 170 176 187 190 195 193 187 191 198 201 203 200 199 198 196 192 189 187 186 188 189 193 187 185 186 183 183
295 274 275 249 257 288 65 81 53 94 115 185 165 3 26 35 42 65 49 47 63 94 144 183 190 189 196 200 201 199 203 210 212 210 209 207 204 200 197 195 194 194 191 204 203 203 209 210 207
284 221 232 254 278 66 16 84 353 153 122 41 309 92 97 52 56 49 55 54 69 84 116 196 193 190 196 203 208 211 213 213 216 219 217 216 211 210 207 204 202 202 202 208 215 212 219 222 228
246 261 265 241 289 68 185 75 358 55 70 358 311 103 95 64 75 44 50 53 59 78 96 145 179 194 202 207 213 219 222 223 222 225 226 224 220 217 215 213 212 211 212 213 219 216 229 229 234
265 253 265 256 141 129 174 106 321 8 109 36 49 100 81 59 38 17 39 43 43 51 74 141 198 205 211 214 217 219 223 227 229 229 229 230 228 224 221 220 218 218 217 218 221 220 227 231 236
254 283 272 309 282 179 129 270 257 313 231 56 291 182 121 63 17 6 13 22 27 23 22 34 202 227 223 223 226 229 231 232 233 235 234 232 231 230 231 229 226 223 224 221 224 229 229 233 235
281 282 270 251 262 217 104 220 319 314 95 303 343 127 65 19 345 340 1 345 19 1 354 338 279 232 227 226 235 237 237 238 239 238 237 235 233 229 228 232 233 229 230 230 228 228 233 235 234
267 261 258 251 224 99 139 240 136 331 257 335 328 33 10 344 349 356 330 321 323 297 295 322 304 274 251 233 244 249 241 241 241 241 240 239 233 235 231 231 228 232 230 234 232 230 231 237 239
249 258 321 11 44 72 227 266 354 283 200 204 300 358 0 359 8 5 358 357 345 343 5 355 332 303 276 260 232 244 244 248 243 240 238 240 238 236 235 232 234 229 230 231 234 234 232 232 234
237 256 31 98 23 311 307 275 306 279 258 37 336 337 17 11 26 24 16 23 15 23 23 6 354 343 294 273 250 246 243 245 252 245 243 245 248 244 237 236 228 224 229 226 230 230 229 225 225
261 235 282 345 173 283 276 310 284 285 309 0 331 24 20 28 32 28 31 27 24 23 12 1 358 349 354 312 311 324 298 272 283 267 261 262 262 257 249 251 238 229 231 222 223 221 222 221 224
248 269 215 259 246 255 267 263 273 262 140 231 56 63 26 30 30 42 36 34 30 24 16 10 7 6 358 5 1 9 346 322 299 296 292 278 277 277 268 264 256 246 236 228 226 225 220 217 219
7 285 267 255 255 251 260 265 239 220 150 245 223 87 35 19 27 34 33 33 27 27 21 15 13 13 16 18 11 9 358 341 351 336 317 281 272 273 271 279 268 258 253 243 234 228 222 223 225
270 266 255 233 241 242 261 250 211 221 187 257 237 139 73 21 30 41 32 28 26 27 22 22 17 14 19 22 22 25 30 24 21 11 357 348 334 318 304 288 304 281 271 265 263 261 230 216 227
250 242 266 174 176 156 234 287 164 166 209 264 278 122 119 49 28 38 38 38 34 33 31 30 26 21 22 21 23 25 25 24 24 18 7 2 355 346 332 329 308 302 292 297 298 277 305 287 264
213 258 217 181 191 262 228 287 126 188 238 270 259 182 121 138 64 51 50 46 39 38 33 32 27 25 23 19 17 18 18 20 18 13 9 4 2 357 348 332 321 327 315 301 301 291 264 256 253
314 236 237 246 182 205 260 267 268 261 263 261 263 275 168 159 75 61 54 49 44 40 37 35 30 25 24 24 19 14 5 1 1 5 360 0 356 353 349 337 331 330 321 318 323 307 311 284 264
303 286 279 282 286 282 266 271 266 264 253 248 235 180 174 155 122 93 72 57 47 38 35 31 30 27 26 22 16 6 354 357 354 356 355 357 353 351 350 342 336 332 326 319 319 314 310 298 288
266 270 271 274 270 296 275 268 275 265 245 291 271 166 167 160 150 136 106 74 52 39 31 27 26 23 23 18 11 3 355 349 350 349 349 352 351 349 347 342 336 333 327 322 320 316 305 293 293
259 265 277 287 303 279 273 270 263 218 190 196 215 174 165 169 152 148 121 89 61 39 28 23 20 17 15 11 7 6 3 355 352 347 346 344 344 344 342 339 336 332 328 321 318 314 308 301 289
269 287 308 274 270 275 92 286 293 203 189 198 181 184 172 163 153 135 129 85 61 44 35 30 28 23 18 14 9 4 358 349 343 338 336 337 339 339 339 339 336 331 324 319 316 311 311 304 293
268 349 272 275 274 280 266 265 290 153 193 192 188 186 176 171 167 145 118 89 71 60 53 37 33 30 24 22 19 11 2 349 341 339 335 336 336 337 338 338 335 329 324 317 312 309 304 295 291
269 265 250 246 253 260 266 250 268 251 208 174 174 184 178 171 153 131 125 113 85 65 52 40 34 31 25 23 20 17 7 355 349 348 342 341 337 336 334 337 332 328 322 318 312 307 301 293 289
241 258 277 264 235 253 234 263 271 309 167 181 160 185 180 174 169 159 154 114 73 61 50 42 34 30 24 24 22 17 9 5 356 353 345 341 340 340 335 336 332 328 321 314 312 308 302 299 287
210 242 255 283 281 293 316 260 279 63 138 159 194 191 175 179 139 184 146 125 104 76 55 47 40 34 30 29 25 21 19 11 4 356 349 347 343 339 335 334 332 330 324 320 315 310 304 296 289
239 245 261 279 284 280 274 274 267 173 178 167 191 185 183 178 166 174 155 136 114 89 68 55 45 43 37 32 29 28 26 21 11 5 0 352 349 343 337 337 335 335 331 325 322 316 309 301 295
263 279 282 246 258 261 262 278 287 160 187 186 197 199 189 161 175 166 166 153 132 106 92 70 55 48 41 34 32 33 29 25 20 11 8 4 357 351 346 346 345 342 339 336 330 322 313 304 298
246 232 239 263 256 272 276 272 325 111 221 212 200 204 201 164 173 186 169 155 133 119 100 89 66 46 40 33 29 33 30 25 23 15 11 9 5 1 359 358 356 353 350 344 339 331 326 323 318
254 255 265 251 269 269 281 268 312 135 301 266 246 203 194 175 172 166 174 167 151 133 117 104 72 54 45 35 30 36 30 26 25 17 13 11 12 8 6 5 3 0 356 352 347 344 342 338 332